Regional Weather Roundup
Issued by NWS Upton, NY

Current Version | Previous Version | Graphics & Text | Print | Product List | Glossary Off
Versions: 1 2 3 4 5 6 7 8 9 10 11 12 13 14 15 16 17 18 19 20 21 22 23 24 25 26 27 28 29 30 31 32 33 34 35 36 37 38 39 40 41 42 43 44 45 46 47 48 49 50

000
ASUS41 KOKX 210905
RWROKX

REGIONAL WEATHER ROUNDUP
NATIONAL WEATHER SERVICE NEW YORK NY
500 AM EDT THU AUG 21 2014

NOTE: "FAIR" INDICATES FEW OR NO CLOUDS BELOW 12,000 FEET WITH NO
SIGNIFICANT WEATHER AND/OR OBSTRUCTIONS TO VISIBILITY.

NYZ071-072-176-178-NJZ106-104-211000-
NEW YORK CITY METRO AREA


CITY           SKY/WX    TMP DP  RH WIND       PRES   REMARKS
CENTRAL PARK   LGT RAIN  69  62  78 CALM      30.06R
LAGUARDIA APRT CLOUDY    73  61  65 CALM      30.02S
KENNEDY INTL   CLOUDY    72  63  73 W3        30.04S
NEWARK/LIBERTY CLOUDY    66  62  87 N5        30.02F
BRNX BOT. GARD   N/A     66  63  88 N1        30.05R
TETERBORO      LGT RAIN  68  62  81 CALM      30.02S
$$

NYZ177-179-078>081-211000-
LONG ISLAND NEW YORK

CITY           SKY/WX    TMP DP  RH WIND       PRES   REMARKS
FARMINGDALE    MOCLDY    66  63  90 CALM      30.04S
ISLIP          PTCLDY    65  61  87 CALM      30.03R
SHIRLEY        PTCLDY    60  58  92 CALM      30.05S
WESTHAMPTON    MOCLDY    59  55  87 CALM      30.06R
MONTAUK POINT    N/A     65  61  87 N3        30.04F
$$

NYZ052-065-067-211000-
HUDSON VALLEY

CITY           SKY/WX    TMP DP  RH WIND       PRES   REMARKS
WHITE PLAINS   MOCLDY    67  64  90 CALM      30.04R
NEWBURGH       NOT AVBL
MONTGOMERY     CLOUDY    64  62  93 CALM      30.03S
POUGHKEEPSIE   LGT RAIN  65  62  90 SE5       30.02S
ALBANY         CLOUDY    68  63  84 SE6       30.01S
$$

NJZ001-105-106-008-010-013-015-019>022-104-211000-
NEW JERSEY

CITY           SKY/WX    TMP DP  RH WIND       PRES   REMARKS
NEWARK/LIBERTY CLOUDY    66  62  87 N5        30.02F
TETERBORO      LGT RAIN  68  62  81 CALM      30.02S
CALDWELL       CLOUDY    65  61  87 E3        30.03F
MORRISTOWN     CLOUDY    66  63  88 CALM      30.03F FOG
SOMERVILLE     MOCLDY    64  62  93 CALM      30.01S FOG
LINDEN         CLOUDY    72  67  85 CALM      30.04F
SUSSEX         CLOUDY    67  63  87 CALM      30.03S
ANDOVER          N/A     67  60  78 CALM      30.03F
TRENTON        CLEAR     67  61  81 S5        30.00F
MILLVILLE      CLEAR     64  62  93 CALM      30.01S
ATLANTIC CITY  PTCLDY    65  63  93 CALM      30.02S
WRIGHTSTOWN    PTCLDY    65  63  94 SE2       30.00F
TOMS RIVER     MOCLDY    64  61  88 CALM      30.02F
BELMAR         CLOUDY    66  63  88 N3        30.03S
$$

PAZ047>061-062-071-211000-
EASTERN PENNSYLVANIA

CITY           SKY/WX    TMP DP  RH WIND       PRES   REMARKS
PHILADELPHIA   PTCLDY    69  64  84 SE6       30.01F
ALLENTOWN      PTCLDY    70  63  78 E6        30.00F
SCRANTON       CLOUDY    70  62  76 CALM      30.00F
$$

CTZ002-004>006-009-010-012-RIZ004-006-007-MAZ004-011-015-211000-
SOUTHERN NEW ENGLAND
 IN CT

CITY           SKY/WX    TMP DP  RH WIND       PRES   REMARKS
BRADLEY INTL   MOCLDY    64  61  90 CALM      30.04S
HARTFORD       MOCLDY    65  60  84 CALM      30.05R
DANBURY        CLOUDY    65  62  90 CALM      30.06S
WTRBRY/OXFORD  MOCLDY    64  61  88 CALM      30.07F
BRIDGEPORT     MOCLDY    70  65  84 NE3       30.04S
MERIDEN        MOCLDY    63  60  90 CALM      30.05R
NEW HAVEN      MOCLDY    67  63  87 CALM      30.05R
CHESTER        FAIR      63  61  94 CALM      30.06S
GROTON         CLOUDY    60  59  96 N3        30.04S
WILLIMANTIC    CLOUDY    61  59  93 SW5       30.06S

 IN RI

CITY           SKY/WX    TMP DP  RH WIND       PRES   REMARKS
PROVIDENCE     MOCLDY    59  57  93 N5        30.05F
BLOCK ISLAND   CLOUDY    63  59  88 N7        30.03S
WESTERLY       CLOUDY    57  56  96 N3        30.04F

 IN MA

CITY           SKY/WX    TMP DP  RH WIND       PRES   REMARKS
BOSTON         MOCLDY    61  59  93 CALM      30.06S
WORCESTER      CLOUDY    60  55  83 W3        30.08R
WESTFIELD      CLOUDY    64  62  93 CALM      30.05S
PROVINCETOWN   PTCLDY    64  61  88 MISG      30.05F
NANTUCKET      CLOUDY    65  62  90 NE5       30.02F
$$

ANZ330-335-338-340-345-350-353-355-211000-
COASTAL MARINE OBSERVATIONS


STATION/POSITION TIME  SKY/WX   TEMP    WIND        PRES    VSBY  WAVE
                                AIR SEA DIR/SP/G                  HT/PER
                 (UTC)          (F)     (DEG/KT/KT) (MB)    (MI)  (FT/S)
NY HARB ENTRANCE NOT AVBL
4S FIRE IS       NOT AVBL
23SW MTP         0900            66 69              1016.3          2/ 5
HUDSON CANYON    0900            70 72   10/  8/ 10 1016.1          3/ 6
EXECUTION ROCKS  0900            72 73  310/  4/  8   N/A
WESTERN LI SOUND 0900            71     190/  2/  4   N/A           0
CENTRAL LI SOUND 0800            70 73   70/  2/  4   N/A           0
EASTERN LI SOUND 0800            65 69   40/  6/  8   N/A
ROBBINS REEF     0900            70     330/  4/  5   N/A
$$


>>>>>>>>>>>>>>>>>>>>>>>>>>>> KEY <<<<<<<<<<<<<<<<<<<<<<<<<<<
>                                                          <
>     SKY/WX - SKY CONDITION/PRESENT WEATHER               <
>     TMP    - TEMPERATURE IN FAHRENHEIT                   <
>     DP     - DEWPOINT IN FAHRENHEIT                      <
>     RH     - RELATIVE HUMIDITY IN PERCENT                <
>     WIND   - DIRECTION AND SPEED IN MPH                  <
>     PRES   - MEAN SEA LEVEL PRESSURE IN INCHES OF HG     <
>     WCI    - WIND CHILL INDEX                            <
>     VSB    - VISIBILITY IN MILES                         <
>     HX     - HEAT INDEX                                  <
>     TC     - TEMPERATURE IN CELSIUS                      <
>     VRB    - VARIABLE WIND DIRECTION                     <
>                                                          <
>>>>>>>>>>>>>>>>>>>>>>>>>>>> KEY <<<<<<<<<<<<<<<<<<<<<<<<<<<




USA.gov is the U.S. government's official web portal to all federal, state and local government web resources and services.